ONEWEB-0055 (45443 NORAD) Tracking and Keplerian Element Data

This shows tracking and keplerian element data for the satellite.

Feedback or suggestion? Click here.




ElementValue
Catalog45443
NameONEWEB-0055
Epoch Orbit163
Epoch Day93.91667824
Epoch Year2020
RAAN134.5921
Inclination87.3971
Eccentricity0.0023735
Argument of Perigee251.7018
Mean Anonmoly256.9626
Mean Motion15.35990052
Decay Rate0.00042894
L11 45443U 20020V 20093.91667824 .00042894 00000-0 12081-2 0 9992
L22 45443 87.3971 134.5921 0023735 251.7018 256.9626 15.35990052 1631

Live tracking and technical data element details for ONEWEB-0055 (NORAD 45443). ONEWEB-0055 can be tracked NOW for your location showing map with azimuth and elevation plus other details from your city location.

Track the satellite on the map from your city or location and see movement details for azimuth, elevation, latitude, longitude, range, height, and movement on the map or in text.







IsCatalogInMostPopularTable: catalog: 45443, numindb: 4
Update: records affected: 1



GetName: 45443 ONEWEB-0055

Hit Count: updated at: Mon, 06 Apr 2020 12:30:32 GMT